Weather reports worldwide

Advertisment
St. James's Park, United Kingdom (3770): temperature & dewpoint: 16.07.2019 20:00:00 - 22.07.2019 20:00:00 (BST)St. James's Park, United Kingdom (3770): temperature -20cm & temperature -100cm: 16.07.2019 20:00:00 - 22.07.2019 20:00:00 (BST)St. James's Park, United Kingdom (3770): precipitation: 16.07.2019 20:00:00 - 22.07.2019 20:00:00 (BST)
Date & Time tt [°C] td [°C] tt -20cm [°C] tt -100cm [°C] rr [mm]
22.07.2019 20:00:00 24,5 17,5 - - 0,0
22.07.2019 19:00:00 25,4 17,4 - - 0,0
22.07.2019 18:00:00 26,3 17,4 - - 0,0
22.07.2019 17:00:00 26,4 17,6 - - 0,0
22.07.2019 16:00:00 26,4 18,9 - - 0,0
22.07.2019 15:00:00 25,6 17,9 - - 0,0
22.07.2019 14:00:00 25,4 17,7 - - 0,0
22.07.2019 13:00:00 23,9 17,8 - - 0,0
22.07.2019 12:00:00 22,1 17,0 - - 0,0
22.07.2019 11:00:00 21,5 16,4 - - 0,0
22.07.2019 10:00:00 21,2 16,2 19,7 18,0 0,0
22.07.2019 09:00:00 20,5 15,6 - - 0,0
22.07.2019 08:00:00 19,2 15,1 - - 0,0
22.07.2019 07:00:00 18,3 14,7 - - 0,0
22.07.2019 06:00:00 17,8 14,7 - - 0,0
22.07.2019 05:00:00 17,4 14,5 - - 0,0
22.07.2019 04:00:00 17,3 14,4 - - 0,0
22.07.2019 03:00:00 17,1 14,2 - - 0,0
22.07.2019 02:00:00 16,9 14,1 - - 0,0
22.07.2019 01:00:00 16,9 13,6 - - 0,0
22.07.2019 00:00:00 17,2 13,7 - - 0,0
21.07.2019 23:00:00 18,1 13,3 - - 0,0
21.07.2019 22:00:00 19,3 12,4 - - 0,0
21.07.2019 21:00:00 20,2 11,9 - - 0,0
21.07.2019 20:00:00 21,0 11,9 - - 0,0
21.07.2019 19:00:00 21,8 12,5 - - 0,0
21.07.2019 18:00:00 22,0 12,4 - - 0,0
21.07.2019 17:00:00 22,2 13,3 - - 0,0
21.07.2019 16:00:00 22,3 12,9 - - 0,0
21.07.2019 15:00:00 22,2 12,1 - - 0,0
21.07.2019 14:00:00 23,5 12,9 - - 0,0
21.07.2019 13:00:00 21,5 12,1 - - 0,0
21.07.2019 12:00:00 20,7 11,8 - - 0,0
21.07.2019 11:00:00 20,9 12,4 - - 0,0
21.07.2019 10:00:00 20,1 13,0 19,4 18,0 0,0
21.07.2019 09:00:00 17,5 12,7 - - 0,0
21.07.2019 08:00:00 15,6 12,3 - - 0,0
21.07.2019 07:00:00 14,6 12,2 - - 0,0
21.07.2019 06:00:00 13,8 11,9 - - 0,0
21.07.2019 05:00:00 13,8 11,7 - - 0,0
21.07.2019 04:00:00 14,2 11,7 - - 0,0
21.07.2019 03:00:00 14,6 11,6 - - 0,0
21.07.2019 02:00:00 15,8 12,1 - - 0,0
21.07.2019 01:00:00 16,5 12,3 - - 0,0
21.07.2019 00:00:00 17,3 12,4 - - 0,0
20.07.2019 23:00:00 18,5 11,8 - - 0,0
20.07.2019 22:00:00 19,3 11,3 - - 0,0
20.07.2019 21:00:00 20,0 11,2 - - 0,0
20.07.2019 20:00:00 21,1 11,7 - - 0,0
20.07.2019 19:00:00 22,2 11,6 - - 0,0
20.07.2019 18:00:00 23,8 12,9 - - 0,0
20.07.2019 17:00:00 24,1 12,6 - - 0,0
20.07.2019 16:00:00 24,3 11,6 - - 0,0
20.07.2019 15:00:00 23,7 11,7 - - 0,0
20.07.2019 14:00:00 22,4 13,8 - - 0,0
20.07.2019 13:00:00 22,2 15,8 - - 0,0
20.07.2019 12:00:00 20,9 15,1 - - 0,0
20.07.2019 11:00:00 21,7 15,9 - - 0,0
20.07.2019 10:00:00 19,6 17,3 19,2 18,0 0,0
20.07.2019 09:00:00 18,5 16,9 - - 0,0
20.07.2019 08:00:00 17,7 16,6 - - 0,2
20.07.2019 07:00:00 16,7 16,0 - - 0,6
20.07.2019 06:00:00 16,3 15,3 - - 0,0
20.07.2019 05:00:00 16,4 15,3 - - 0,0
20.07.2019 04:00:00 16,7 16,1 - - 0,2
20.07.2019 03:00:00 16,8 15,9 - - 4,6
20.07.2019 02:00:00 17,1 16,3 - - 3,8
20.07.2019 01:00:00 17,3 16,3 - - 3,8
20.07.2019 00:00:00 18,0 16,8 - - 0,4
19.07.2019 23:00:00 18,2 16,8 - - 0,2
19.07.2019 22:00:00 18,4 16,7 - - 0,0
19.07.2019 21:00:00 18,8 17,1 - - 0,0
19.07.2019 20:00:00 18,7 17,3 - - 0,4
19.07.2019 19:00:00 18,8 17,0 - - 0,2
19.07.2019 18:00:00 19,1 16,3 - - 0,0
19.07.2019 17:00:00 19,0 16,4 - - 0,0
19.07.2019 16:00:00 18,4 16,5 - - 0,0
19.07.2019 15:00:00 17,7 16,2 - - 0,0
19.07.2019 14:00:00 17,0 15,3 - - 0,8
19.07.2019 13:00:00 16,6 15,2 - - 2,4
19.07.2019 12:00:00 15,5 13,5 - - 3,2
19.07.2019 11:00:00 18,9 12,8 - - 0,0
19.07.2019 10:00:00 18,0 12,2 19,4 18,0 0,0
19.07.2019 09:00:00 16,6 11,1 - - 0,0
19.07.2019 08:00:00 16,3 12,0 - - 0,0
19.07.2019 07:00:00 15,5 11,1 - - 0,0
19.07.2019 06:00:00 13,9 10,3 - - 0,0
19.07.2019 05:00:00 13,5 9,7 - - 0,0
19.07.2019 04:00:00 13,7 9,2 - - 0,0
19.07.2019 03:00:00 14,3 9,4 - - 0,0
19.07.2019 02:00:00 14,9 9,0 - - 0,0
19.07.2019 01:00:00 16,5 9,2 - - 0,0
19.07.2019 00:00:00 17,2 9,2 - - 0,0
18.07.2019 23:00:00 18,4 9,6 - - 0,0
18.07.2019 22:00:00 19,5 10,5 - - 0,0
18.07.2019 21:00:00 20,7 10,3 - - 0,0
18.07.2019 20:00:00 21,8 9,2 - - 0,0
18.07.2019 19:00:00 22,2 9,7 - - 0,0
18.07.2019 18:00:00 22,7 9,1 - - 0,0
18.07.2019 17:00:00 23,3 10,7 - - 0,0
18.07.2019 16:00:00 21,6 11,9 - - 0,0
18.07.2019 15:00:00 21,5 11,6 - - 0,0
18.07.2019 14:00:00 21,7 12,4 - - 0,0
18.07.2019 13:00:00 20,4 13,4 - - 0,0
18.07.2019 12:00:00 19,1 15,5 - - 0,0
18.07.2019 11:00:00 18,4 16,3 - - 1,0
18.07.2019 10:00:00 18,1 16,7 20,0 18,0 0,2
18.07.2019 09:00:00 17,7 16,0 - - 0,2
18.07.2019 08:00:00 17,1 15,3 - - 0,0
18.07.2019 07:00:00 16,7 14,7 - - 0,0
18.07.2019 06:00:00 16,8 14,0 - - 0,0
18.07.2019 05:00:00 16,7 13,8 - - 0,0
18.07.2019 04:00:00 16,5 13,8 - - 0,0
18.07.2019 03:00:00 16,8 13,7 - - 0,0
18.07.2019 02:00:00 17,4 13,3 - - 0,0
18.07.2019 01:00:00 18,3 12,9 - - 0,0
18.07.2019 00:00:00 18,6 11,6 - - 0,0
17.07.2019 23:00:00 19,5 9,5 - - 0,0
17.07.2019 22:00:00 20,5 9,1 - - 0,0
17.07.2019 21:00:00 21,3 10,9 - - 0,0
17.07.2019 20:00:00 22,0 12,0 - - 0,0
17.07.2019 19:00:00 23,0 12,5 - - 0,0
17.07.2019 18:00:00 23,8 11,0 - - 0,0
17.07.2019 17:00:00 24,8 10,7 - - 0,0
17.07.2019 16:00:00 24,3 11,3 - - 0,0
17.07.2019 15:00:00 25,0 10,5 - - 0,0
17.07.2019 14:00:00 25,2 10,6 - - 0,0
17.07.2019 13:00:00 25,2 10,7 - - 0,0
17.07.2019 12:00:00 24,2 10,0 - - 0,0
17.07.2019 11:00:00 23,5 9,4 - - 0,0
17.07.2019 10:00:00 22,2 12,4 19,7 18,0 0,0
17.07.2019 09:00:00 20,4 13,4 - - 0,0
17.07.2019 08:00:00 18,2 12,7 - - 0,0
17.07.2019 07:00:00 16,1 13,0 - - 0,0
17.07.2019 06:00:00 14,1 12,0 - - 0,0
17.07.2019 05:00:00 14,0 11,8 - - 0,0
17.07.2019 04:00:00 15,0 12,3 - - 0,0
17.07.2019 03:00:00 15,8 12,6 - - 0,0
17.07.2019 02:00:00 16,3 12,8 - - 0,0
17.07.2019 01:00:00 17,2 12,9 - - 0,0
17.07.2019 00:00:00 18,0 12,8 - - 0,0
16.07.2019 23:00:00 18,9 13,1 - - 0,0
16.07.2019 22:00:00 20,2 13,3 - - 0,0
16.07.2019 21:00:00 21,8 13,2 - - 0,0
16.07.2019 20:00:00 23,1 12,7 - - 0,0

tt = temperature
td = dewpoint
tt -20cm = temperature -20cm
tt -100cm = temperature -100cm
rr = precipitation

Next stations